TimeEDT,TemperatureF,Dew PointF,Humidity,Sea Level PressureIn,VisibilityMPH,Wind Direction,Wind SpeedMPH,Gust SpeedMPH,PrecipitationIn,Events,Conditions,WindDirDegrees,DateUTC
12:56 AM,51.1,34.0,52,30.03,10.0,SW,11.5,-,N/A,,Scattered Clouds,230,2013-10-27 04:56:00
1:56 AM,48.9,34.0,56,30.03,10.0,WSW,12.7,-,N/A,,Partly Cloudy,240,2013-10-27 05:56:00
2:56 AM,46.9,35.1,63,30.03,10.0,WSW,9.2,-,N/A,,Partly Cloudy,240,2013-10-27 06:56:00
3:56 AM,48.0,35.1,61,30.01,10.0,SW,10.4,-,N/A,,Scattered Clouds,230,2013-10-27 07:56:00
4:56 AM,48.0,36.0,63,30.02,10.0,SW,9.2,-,N/A,,Mostly Cloudy,230,2013-10-27 08:56:00
5:56 AM,45.0,36.0,71,30.02,10.0,WSW,5.8,-,N/A,,Scattered Clouds,240,2013-10-27 09:56:00
6:56 AM,43.0,36.0,76,30.04,10.0,SW,5.8,-,N/A,,Partly Cloudy,230,2013-10-27 10:56:00
7:56 AM,43.0,36.0,76,30.07,10.0,West,3.5,-,N/A,,Partly Cloudy,260,2013-10-27 11:56:00
8:56 AM,48.9,39.9,71,30.09,10.0,West,3.5,-,N/A,,Partly Cloudy,270,2013-10-27 12:56:00
9:56 AM,55.9,41.0,57,30.10,10.0,NNW,8.1,-,N/A,,Scattered Clouds,330,2013-10-27 13:56:00
10:56 AM,60.1,37.9,44,30.10,10.0,NNW,9.2,-,N/A,,Scattered Clouds,330,2013-10-27 14:56:00
11:56 AM,63.0,35.1,35,30.10,10.0,WNW,6.9,-,N/A,,Scattered Clouds,290,2013-10-27 15:56:00
12:56 PM,64.0,32.0,30,30.08,10.0,North,9.2,-,N/A,,Mostly Cloudy,350,2013-10-27 16:56:00
1:56 PM,64.0,35.1,34,30.05,10.0,Variable,4.6,-,N/A,,Mostly Cloudy,0,2013-10-27 17:56:00
2:56 PM,63.0,39.0,41,30.05,10.0,ESE,11.5,-,N/A,,Mostly Cloudy,120,2013-10-27 18:56:00
3:56 PM,62.1,37.9,41,30.06,10.0,East,8.1,-,N/A,,Scattered Clouds,90,2013-10-27 19:56:00
4:56 PM,60.1,39.0,46,30.07,10.0,ESE,8.1,-,N/A,,Scattered Clouds,110,2013-10-27 20:56:00
5:56 PM,55.9,39.0,53,30.08,10.0,SE,5.8,-,N/A,,Partly Cloudy,130,2013-10-27 21:56:00
6:56 PM,52.0,42.1,69,30.10,10.0,East,3.5,-,N/A,,Partly Cloudy,80,2013-10-27 22:56:00
7:56 PM,50.0,42.1,74,30.12,10.0,Calm,Calm,-,N/A,,Clear,0,2013-10-27 23:56:00
8:56 PM,48.9,42.1,77,30.12,10.0,Calm,Calm,-,N/A,,Scattered Clouds,0,2013-10-28 00:56:00
9:56 PM,54.0,43.0,66,30.14,10.0,SSE,5.8,-,N/A,,Clear,160,2013-10-28 01:56:00
10:56 PM,53.1,45.0,74,30.15,10.0,South,4.6,-,N/A,,Clear,180,2013-10-28 02:56:00
11:56 PM,48.9,44.1,83,30.16,10.0,SW,3.5,-,N/A,,Clear,220,2013-10-28 03:56:00